| time (UTC) | temp F | wind direction | speed MPH | gust MPH | rain 1hr in | rain 24hr in | rain mn in | humidity % | barometer mb |
| 20260906214048 | 81 | 104 | 8.0 | 18.0 | 0.00 | 0.00 | 0.00 | 36 | 1022.4 |
| 20260906213545 | 81 | 164 | 7.0 | 18.0 | 0.00 | 0.00 | 0.00 | 36 | 1022.5 |
| 20260906213104 | 81 | 171 | 9.0 | 18.0 | 0.00 | 0.00 | 0.00 | 36 | 1022.6 |
| 20260906212545 | 82 | 142 | 10.0 | 17.0 | 0.00 | 0.00 | 0.00 | 35 | 1022.7 |
| 20260906212049 | 83 | 143 | 9.0 | 18.0 | 0.00 | 0.00 | 0.00 | 34 | 1022.6 |
| 20260906211604 | 83 | 160 | 8.0 | 19.0 | 0.00 | 0.00 | 0.00 | 34 | 1022.6 |
| 20260906211046 | 83 | 159 | 7.0 | 19.0 | 0.00 | 0.00 | 0.00 | 34 | 1022.6 |
| 20260906210548 | 83 | 183 | 6.0 | 15.0 | 0.00 | 0.00 | 0.00 | 34 | 1022.6 |
| 20260906210105 | 83 | 171 | 7.0 | 16.0 | 0.00 | 0.00 | 0.00 | 34 | 1022.7 |
| 20260906205546 | 83 | 134 | 7.0 | 16.0 | 0.00 | 0.00 | 0.00 | 34 | 1022.8 |
| 20260906205045 | 83 | 160 | 6.0 | 14.0 | 0.00 | 0.00 | 0.00 | 35 | 1022.9 |
| 20260906204623 | 83 | 163 | 8.0 | 14.0 | 0.00 | 0.00 | 0.00 | 34 | 1022.9 |
| 20260906204045 | 83 | 139 | 7.0 | 15.0 | 0.00 | 0.00 | 0.00 | 35 | 1022.9 |
| 20260906203545 | 83 | 190 | 8.0 | 15.0 | 0.00 | 0.00 | 0.00 | 34 | 1023.0 |
| 20260906203104 | 83 | 118 | 7.0 | 14.0 | 0.00 | 0.00 | 0.00 | 34 | 1023.0 |
| 20260906202544 | 83 | 128 | 5.0 | 18.0 | 0.00 | 0.00 | 0.00 | 34 | 1023.1 |
| 20260906202045 | 82 | 156 | 8.0 | 18.0 | 0.00 | 0.00 | 0.00 | 31 | 1023.1 |
| 20260906201611 | 82 | 183 | 8.0 | 14.0 | 0.00 | 0.00 | 0.00 | 31 | 1023.2 |
| 20260906201046 | 82 | 200 | 5.0 | 17.0 | 0.00 | 0.00 | 0.00 | 33 | 1023.2 |
| 20260906200545 | 82 | 185 | 7.0 | 17.0 | 0.00 | 0.00 | 0.00 | 33 | 1023.4 |
| 20260906200105 | 82 | 147 | 7.0 | 17.0 | 0.00 | 0.00 | 0.00 | 33 | 1023.4 |
| 20260906195545 | 83 | 181 | 9.0 | 16.0 | 0.00 | 0.00 | 0.00 | 33 | 1023.5 |
| 20260906195049 | 82 | 140 | 7.0 | 17.0 | 0.00 | 0.00 | 0.00 | 34 | 1023.4 |
| 20260906194603 | 82 | 94 | 6.0 | 17.0 | 0.00 | 0.00 | 0.00 | 33 | 1023.5 |
| 20260906194044 | 83 | 142 | 9.0 | 17.0 | 0.00 | 0.00 | 0.00 | 33 | 1023.6 |
| 20260906193545 | 82 | 102 | 6.0 | 15.0 | 0.00 | 0.00 | 0.00 | 34 | 1023.5 |
| 20260906193106 | 82 | 137 | 7.0 | 15.0 | 0.00 | 0.00 | 0.00 | 33 | 1023.8 |
| 20260906192545 | 82 | 121 | 7.0 | 15.0 | 0.00 | 0.00 | 0.00 | 34 | 1023.8 |
| 20260906192046 | 82 | 166 | 6.0 | 15.0 | 0.00 | 0.00 | 0.00 | 34 | 1023.7 |
| 20260906191607 | 82 | 175 | 6.0 | 13.0 | 0.00 | 0.00 | 0.00 | 34 | 1023.8 |
| 20260906191045 | 81 | 123 | 5.0 | 17.0 | 0.00 | 0.00 | 0.00 | 34 | 1023.9 |
| 20260906190549 | 81 | 171 | 8.0 | 18.0 | 0.00 | 0.00 | 0.00 | 33 | 1024.0 |
| 20260906185549 | 81 | 152 | 4.0 | 19.0 | 0.00 | 0.00 | 0.00 | 35 | 1024.1 |
| 20260906185048 | 81 | 165 | 9.0 | 17.0 | 0.00 | 0.00 | 0.00 | 34 | 1024.3 |
| 20260906184603 | 81 | 205 | 5.0 | 16.0 | 0.00 | 0.00 | 0.00 | 34 | 1024.1 |
| 20260906184048 | 81 | 115 | 7.0 | 16.0 | 0.00 | 0.00 | 0.00 | 34 | 1024.3 |
| 20260906183545 | 81 | 84 | 5.0 | 16.0 | 0.00 | 0.00 | 0.00 | 33 | 1024.5 |
| 20260906183104 | 81 | 114 | 9.0 | 15.0 | 0.00 | 0.00 | 0.00 | 32 | 1024.7 |
| 20260906182547 | 82 | 156 | 6.0 | 16.0 | 0.00 | 0.00 | 0.00 | 33 | 1024.8 |
| 20260906182046 | 81 | 82 | 5.0 | 16.0 | 0.00 | 0.00 | 0.00 | 33 | 1024.8 |
| 20260906181602 | 81 | 119 | 8.0 | 16.0 | 0.00 | 0.00 | 0.00 | 33 | 1024.9 |
| 20260906181046 | 80 | 111 | 4.0 | 16.0 | 0.00 | 0.00 | 0.00 | 35 | 1025.0 |
| 20260906180548 | 80 | 95 | 8.0 | 16.0 | 0.00 | 0.00 | 0.00 | 34 | 1025.2 |
| 20260906180107 | 80 | 169 | 6.0 | 13.0 | 0.00 | 0.00 | 0.00 | 33 | 1025.3 |
| 20260906175548 | 80 | 167 | 7.0 | 15.0 | 0.00 | 0.00 | 0.00 | 34 | 1025.4 |
| 20260906175046 | 80 | 178 | 8.0 | 15.0 | 0.00 | 0.00 | 0.00 | 34 | 1025.4 |
| 20260906174605 | 80 | 150 | 8.0 | 13.0 | 0.00 | 0.00 | 0.00 | 33 | 1025.4 |
| 20260906174048 | 80 | 128 | 6.0 | 13.0 | 0.00 | 0.00 | 0.00 | 34 | 1025.5 |
| 20260906173546 | 79 | 178 | 6.0 | 13.0 | 0.00 | 0.00 | 0.00 | 33 | 1025.5 |
| 20260906173104 | 80 | 110 | 4.0 | 11.0 | 0.00 | 0.00 | 0.00 | 32 | 1025.6 |
| 20260906172545 | 80 | 106 | 6.0 | 11.0 | 0.00 | 0.00 | 0.00 | 33 | 1025.6 |
| 20260906172044 | 80 | 84 | 6.0 | 12.0 | 0.00 | 0.00 | 0.00 | 33 | 1025.7 |
| 20260906171602 | 80 | 217 | 3.0 | 12.0 | 0.00 | 0.00 | 0.00 | 34 | 1025.7 |
| 20260906171045 | 79 | 111 | 2.0 | 9.0 | 0.00 | 0.00 | 0.00 | 34 | 1025.7 |
| 20260906170545 | 78 | 0 | 4.0 | 9.0 | 0.00 | 0.00 | 0.00 | 34 | 1025.8 |
| 20260906170106 | 79 | 158 | 3.0 | 9.0 | 0.00 | 0.00 | 0.00 | 34 | 1025.8 |
| 20260906165546 | 78 | 118 | 2.0 | 9.0 | 0.00 | 0.00 | 0.00 | 35 | 1025.8 |
| 20260906165045 | 78 | 261 | 2.0 | 9.0 | 0.00 | 0.00 | 0.00 | 35 | 1025.8 |
| 20260906164610 | 77 | 0 | 2.0 | 9.0 | 0.00 | 0.00 | 0.00 | 38 | 1025.9 |
| 20260906164045 | 76 | 352 | 2.0 | 9.0 | 0.00 | 0.00 | 0.00 | 36 | 1025.9 |
| 20260906163545 | 77 | 30 | 2.0 | 7.0 | 0.00 | 0.00 | 0.00 | 36 | 1026.0 |
| 20260906163104 | 76 | 139 | 3.0 | 6.0 | 0.00 | 0.00 | 0.00 | 36 | 1025.9 |
| 20260906162546 | 76 | 0 | 1.0 | 5.0 | 0.00 | 0.00 | 0.00 | 38 | 1026.0 |
| 20260906162045 | 76 | 0 | 1.0 | 6.0 | 0.00 | 0.00 | 0.00 | 35 | 1026.1 |
| 20260906161603 | 76 | 105 | 1.0 | 6.0 | 0.00 | 0.00 | 0.00 | 36 | 1026.0 |
| 20260906161045 | 76 | 77 | 1.0 | 6.0 | 0.00 | 0.00 | 0.00 | 36 | 1026.1 |
| 20260906160545 | 76 | 71 | 2.0 | 6.0 | 0.00 | 0.00 | 0.00 | 35 | 1026.1 |
| 20260906160100 | 76 | 100 | 1.0 | 8.0 | 0.00 | 0.00 | 0.00 | 37 | 1026.0 |
| 20260906155545 | 76 | 109 | 2.0 | 8.0 | 0.00 | 0.00 | 0.00 | 36 | 1026.0 |
| 20260906155050 | 75 | 94 | 2.0 | 8.0 | 0.00 | 0.00 | 0.00 | 36 | 1026.0 |
| 20260906154607 | 75 | 82 | 3.0 | 5.0 | 0.00 | 0.00 | 0.00 | 37 | 1025.9 |
| 20260906154045 | 74 | 144 | 2.0 | 7.0 | 0.00 | 0.00 | 0.00 | 39 | 1025.9 |
| 20260906153548 | 74 | 149 | 3.0 | 7.0 | 0.00 | 0.00 | 0.00 | 40 | 1025.9 |
| 20260906153103 | 74 | 152 | 2.0 | 9.0 | 0.00 | 0.00 | 0.00 | 41 | 1025.7 |
| 20260906152545 | 74 | 101 | 4.0 | 9.0 | 0.00 | 0.00 | 0.00 | 42 | 1025.7 |
| 20260906152046 | 74 | 84 | 3.0 | 7.0 | 0.00 | 0.00 | 0.00 | 41 | 1025.8 |
| 20260906151603 | 73 | 0 | 1.0 | 4.0 | 0.00 | 0.00 | 0.00 | 41 | 1025.7 |
| 20260906151046 | 73 | 0 | 0.0 | 4.0 | 0.00 | 0.00 | 0.00 | 42 | 1025.6 |
| 20260906150545 | 73 | 0 | 0.0 | 4.0 | 0.00 | 0.00 | 0.00 | 42 | 1025.6 |
| 20260906150105 | 72 | 107 | 2.0 | 4.0 | 0.00 | 0.00 | 0.00 | 42 | 1025.7 |
| 20260906145548 | 72 | 159 | 0.0 | 4.0 | 0.00 | 0.00 | 0.00 | 45 | 1025.7 |
| 20260906145046 | 71 | 81 | 0.0 | 3.0 | 0.00 | 0.00 | 0.00 | 45 | 1025.6 |
| 20260906144605 | 71 | 90 | 0.0 | 5.0 | 0.00 | 0.00 | 0.00 | 43 | 1025.7 |
| 20260906144047 | 70 | 0 | 1.0 | 5.0 | 0.00 | 0.00 | 0.00 | 44 | 1025.6 |
| 20260906143546 | 70 | 0 | 0.0 | 3.0 | 0.00 | 0.00 | 0.00 | 44 | 1025.6 |
| 20260906143112 | 69 | 0 | 1.0 | 3.0 | 0.00 | 0.00 | 0.00 | 46 | 1025.6 |
| 20260906142545 | 69 | 360 | 0.0 | 2.0 | 0.00 | 0.00 | 0.00 | 46 | 1025.6 |
| 20260906142046 | 69 | 0 | 0.0 | 3.0 | 0.00 | 0.00 | 0.00 | 48 | 1025.6 |
| 20260906141603 | 68 | 0 | 0.0 | 4.0 | 0.00 | 0.00 | 0.00 | 47 | 1025.6 |
| 20260906141045 | 68 | 27 | 2.0 | 4.0 | 0.00 | 0.00 | 0.00 | 47 | 1025.6 |
| 20260906140546 | 68 | 100 | 1.0 | 4.0 | 0.00 | 0.00 | 0.00 | 46 | 1025.6 |
| 20260906140107 | 68 | 65 | 1.0 | 4.0 | 0.00 | 0.00 | 0.00 | 47 | 1025.4 |
| 20260906135545 | 67 | 63 | 0.0 | 4.0 | 0.00 | 0.00 | 0.00 | 49 | 1025.5 |
| 20260906135044 | 67 | 94 | 2.0 | 4.0 | 0.00 | 0.00 | 0.00 | 48 | 1025.3 |
| 20260906134605 | 66 | 0 | 0.0 | 3.0 | 0.00 | 0.00 | 0.00 | 49 | 1025.3 |
| 20260906134045 | 66 | 0 | 0.0 | 4.0 | 0.00 | 0.00 | 0.00 | 50 | 1025.3 |
| 20260906133545 | 65 | 0 | 1.0 | 4.0 | 0.00 | 0.00 | 0.00 | 50 | 1025.2 |
| 20260906133111 | 65 | 58 | 0.0 | 4.0 | 0.00 | 0.00 | 0.00 | 51 | 1025.2 |
| 20260906132546 | 64 | 0 | 0.0 | 3.0 | 0.00 | 0.00 | 0.00 | 51 | 1025.2 |
| 20260906132045 | 64 | 0 | 0.0 | 4.0 | 0.00 | 0.00 | 0.00 | 51 | 1025.1 |
| 20260906131606 | 64 | 0 | 0.0 | 4.0 | 0.00 | 0.00 | 0.00 | 51 | 1025.1 |
| 20260906131045 | 64 | 78 | 2.0 | 4.0 | 0.00 | 0.00 | 0.00 | 50 | 1025.0 |
| 20260906130548 | 64 | 82 | 1.0 | 5.0 | 0.00 | 0.00 | 0.00 | 50 | 1025.0 |
| 20260906130104 | 63 | 55 | 1.0 | 5.0 | 0.00 | 0.00 | 0.00 | 51 | 1025.0 |
| 20260906125545 | 63 | 76 | 2.0 | 6.0 | 0.00 | 0.00 | 0.00 | 51 | 1025.1 |
| 20260906125048 | 63 | 108 | 3.0 | 7.0 | 0.00 | 0.00 | 0.00 | 51 | 1025.0 |
| 20260906124603 | 62 | 94 | 1.0 | 7.0 | 0.00 | 0.00 | 0.00 | 52 | 1025.0 |
| 20260906124046 | 62 | 92 | 3.0 | 7.0 | 0.00 | 0.00 | 0.00 | 52 | 1025.0 |
| 20260906123547 | 62 | 0 | 2.0 | 6.0 | 0.00 | 0.00 | 0.00 | 52 | 1024.9 |
| 20260906123111 | 61 | 102 | 2.0 | 5.0 | 0.00 | 0.00 | 0.00 | 53 | 1024.8 |
| 20260906122545 | 61 | 0 | 0.0 | 4.0 | 0.00 | 0.00 | 0.00 | 54 | 1024.8 |
| 20260906122045 | 61 | 0 | 0.0 | 3.0 | 0.00 | 0.00 | 0.00 | 53 | 1024.8 |
| 20260906121607 | 61 | 0 | 0.0 | 3.0 | 0.00 | 0.00 | 0.00 | 53 | 1024.7 |
| 20260906121046 | 61 | 0 | 0.0 | 7.0 | 0.00 | 0.00 | 0.00 | 53 | 1024.8 |
| 20260906120545 | 61 | 0 | 1.0 | 7.0 | 0.00 | 0.00 | 0.00 | 53 | 1024.9 |
| 20260906120147 | 61 | 82 | 1.0 | 4.0 | 0.00 | 0.00 | 0.00 | 53 | 1024.8 |
| 20260906115545 | 62 | 0 | 0.0 | 5.0 | 0.00 | 0.00 | 0.00 | 53 | 1024.8 |
| 20260906115049 | 62 | 0 | 0.0 | 5.0 | 0.00 | 0.00 | 0.00 | 53 | 1024.8 |
| 20260906114634 | 62 | 58 | 1.0 | 6.0 | 0.00 | 0.00 | 0.00 | 53 | 1024.8 |
| 20260906114045 | 61 | 0 | 1.0 | 6.0 | 0.00 | 0.00 | 0.00 | 53 | 1024.7 |
| 20260906113546 | 61 | 107 | 2.0 | 6.0 | 0.00 | 0.00 | 0.00 | 53 | 1024.7 |
| 20260906113102 | 61 | 88 | 3.0 | 6.0 | 0.00 | 0.00 | 0.00 | 53 | 1024.7 |
| 20260906112545 | 61 | 0 | 0.0 | 0.0 | 0.00 | 0.00 | 0.00 | 54 | 1024.7 |
| 20260906112046 | 61 | 0 | 0.0 | 0.0 | 0.00 | 0.00 | 0.00 | 53 | 1024.7 |
| 20260906111622 | 61 | 0 | 0.0 | 0.0 | 0.00 | 0.00 | 0.00 | 53 | 1024.6 |
| 20260906111046 | 62 | 0 | 0.0 | 5.0 | 0.00 | 0.00 | 0.00 | 53 | 1024.6 |
| 20260906110545 | 61 | 0 | 1.0 | 5.0 | 0.00 | 0.00 | 0.00 | 53 | 1024.6 |
| 20260906105545 | 61 | 0 | 0.0 | 2.0 | 0.00 | 0.00 | 0.00 | 54 | 1024.5 |
| 20260906105048 | 61 | 0 | 0.0 | 0.0 | 0.00 | 0.00 | 0.00 | 53 | 1024.5 |
| 20260906104602 | 62 | 0 | 0.0 | 0.0 | 0.00 | 0.00 | 0.00 | 52 | 1024.6 |
| 20260906104045 | 62 | 0 | 0.0 | 0.0 | 0.00 | 0.00 | 0.00 | 52 | 1024.6 |
| 20260906103545 | 62 | 0 | 0.0 | 2.0 | 0.00 | 0.00 | 0.00 | 52 | 1024.6 |
| 20260906103112 | 63 | 0 | 0.0 | 3.0 | 0.00 | 0.00 | 0.00 | 52 | 1024.7 |
| 20260906102545 | 63 | 0 | 1.0 | 3.0 | 0.00 | 0.00 | 0.00 | 52 | 1024.6 |
| 20260906102046 | 63 | 0 | 0.0 | 2.0 | 0.00 | 0.00 | 0.00 | 52 | 1024.7 |
| 20260906101603 | 63 | 0 | 0.0 | 2.0 | 0.00 | 0.00 | 0.00 | 52 | 1024.6 |
| 20260906101045 | 62 | 0 | 0.0 | 7.0 | 0.00 | 0.00 | 0.00 | 53 | 1024.7 |
| 20260906100545 | 62 | 0 | 1.0 | 7.0 | 0.00 | 0.00 | 0.00 | 52 | 1024.8 |
| 20260906100104 | 62 | 0 | 2.0 | 7.0 | 0.00 | 0.00 | 0.00 | 53 | 1024.8 |
| 20260906095546 | 62 | 294 | 0.0 | 3.0 | 0.00 | 0.00 | 0.00 | 52 | 1024.9 |
| 20260906095045 | 63 | 0 | 0.0 | 0.0 | 0.00 | 0.00 | 0.00 | 53 | 1025.0 |
| 20260906094605 | 63 | 0 | 0.0 | 0.0 | 0.00 | 0.00 | 0.00 | 53 | 1025.0 |
| 20260906094045 | 63 | 0 | 0.0 | 0.0 | 0.00 | 0.00 | 0.00 | 52 | 1025.0 |
| 20260906093546 | 63 | 0 | 0.0 | 0.0 | 0.00 | 0.00 | 0.00 | 51 | 1025.0 |
| 20260906093105 | 64 | 0 | 0.0 | 0.0 | 0.00 | 0.00 | 0.00 | 51 | 1025.0 |
| 20260906092548 | 64 | 0 | 0.0 | 2.0 | 0.00 | 0.00 | 0.00 | 50 | 1024.9 |
| 20260906092046 | 65 | 0 | 0.0 | 2.0 | 0.00 | 0.00 | 0.00 | 50 | 1024.8 |
| 20260906091607 | 65 | 0 | 0.0 | 3.0 | 0.00 | 0.00 | 0.00 | 49 | 1024.8 |
| 20260906091045 | 65 | 0 | 0.0 | 4.0 | 0.00 | 0.00 | 0.00 | 49 | 1024.8 |
| 20260906090546 | 66 | 92 | 0.0 | 4.0 | 0.00 | 0.00 | 0.00 | 49 | 1024.7 |
| 20260906090105 | 67 | 45 | 1.0 | 6.0 | 0.00 | 0.00 | 0.00 | 48 | 1024.7 |
| 20260906085547 | 67 | 0 | 2.0 | 8.0 | 0.00 | 0.00 | 0.00 | 47 | 1024.6 |
| 20260906085045 | 67 | 304 | 4.0 | 8.0 | 0.00 | 0.00 | 0.00 | 46 | 1024.8 |
| 20260906084603 | 68 | 338 | 4.0 | 10.0 | 0.00 | 0.00 | 0.00 | 46 | 1024.8 |
| 20260906084046 | 68 | 286 | 7.0 | 13.0 | 0.00 | 0.00 | 0.00 | 44 | 1024.7 |
| 20260906083545 | 68 | 293 | 7.0 | 13.0 | 0.00 | 0.00 | 0.00 | 45 | 1024.7 |
| 20260906083106 | 68 | 300 | 5.0 | 11.0 | 0.00 | 0.00 | 0.00 | 45 | 1024.8 |
| 20260906082545 | 67 | 257 | 6.0 | 11.0 | 0.00 | 0.00 | 0.00 | 46 | 1024.9 |
| 20260906082045 | 67 | 294 | 3.0 | 12.0 | 0.00 | 0.00 | 0.00 | 47 | 1024.8 |
| 20260906081600 | 67 | 317 | 7.0 | 12.0 | 0.00 | 0.00 | 0.00 | 47 | 1024.9 |
| 20260906081045 | 67 | 266 | 5.0 | 12.0 | 0.00 | 0.00 | 0.00 | 49 | 1024.9 |
| 20260906080545 | 66 | 270 | 4.0 | 12.0 | 0.00 | 0.00 | 0.00 | 52 | 1024.9 |
| 20260906080058 | 66 | 257 | 7.0 | 12.0 | 0.00 | 0.00 | 0.00 | 55 | 1024.9 |
| 20260906075549 | 65 | 277 | 0.0 | 9.0 | 0.00 | 0.00 | 0.00 | 57 | 1024.9 |
| 20260906075046 | 65 | 278 | 3.0 | 9.0 | 0.00 | 0.00 | 0.00 | 58 | 1025.0 |
| 20260906074602 | 64 | 271 | 5.0 | 9.0 | 0.00 | 0.00 | 0.00 | 61 | 1025.0 |
| 20260906074044 | 63 | 282 | 4.0 | 8.0 | 0.00 | 0.00 | 0.00 | 62 | 1025.0 |
| 20260906073546 | 63 | 207 | 0.0 | 4.0 | 0.00 | 0.00 | 0.00 | 64 | 1025.1 |
| 20260906073101 | 63 | 0 | 1.0 | 4.0 | 0.00 | 0.00 | 0.00 | 65 | 1025.2 |
| 20260906072546 | 63 | 271 | 0.0 | 4.0 | 0.00 | 0.00 | 0.00 | 66 | 1025.2 |
| 20260906072046 | 63 | 0 | 1.0 | 4.0 | 0.00 | 0.00 | 0.00 | 65 | 1025.3 |
| 20260906071559 | 63 | 0 | 0.0 | 4.0 | 0.00 | 0.00 | 0.00 | 66 | 1025.2 |
| 20260906071045 | 63 | 0 | 2.0 | 6.0 | 0.00 | 0.00 | 0.00 | 65 | 1025.3 |
| 20260906070549 | 63 | 0 | 1.0 | 6.0 | 0.00 | 0.00 | 0.00 | 65 | 1025.2 |
| 20260906070058 | 63 | 200 | 3.0 | 6.0 | 0.00 | 0.00 | 0.00 | 64 | 1025.1 |
| 20260906065545 | 64 | 281 | 2.0 | 4.0 | 0.00 | 0.00 | 0.00 | 63 | 1025.2 |
| 20260906065044 | 64 | 315 | 0.0 | 4.0 | 0.00 | 0.00 | 0.00 | 61 | 1025.3 |
| 20260906064604 | 64 | 0 | 0.0 | 4.0 | 0.00 | 0.00 | 0.00 | 60 | 1025.6 |
| 20260906064045 | 65 | 302 | 3.0 | 7.0 | 0.00 | 0.00 | 0.00 | 59 | 1025.5 |
| 20260906063547 | 65 | 303 | 0.0 | 7.0 | 0.00 | 0.00 | 0.00 | 60 | 1025.6 |
| 20260906063101 | 65 | 68 | 0.0 | 7.0 | 0.00 | 0.00 | 0.00 | 59 | 1025.5 |
| 20260906062545 | 65 | 188 | 1.0 | 8.0 | 0.00 | 0.00 | 0.00 | 57 | 1025.4 |
| 20260906062045 | 65 | 212 | 2.0 | 8.0 | 0.00 | 0.00 | 0.00 | 56 | 1025.3 |
| 20260906061600 | 65 | 213 | 4.0 | 8.0 | 0.00 | 0.00 | 0.00 | 56 | 1025.1 |
| 20260906061045 | 65 | 152 | 0.0 | 10.0 | 0.00 | 0.00 | 0.00 | 58 | 1025.0 |
| 20260906060545 | 64 | 237 | 5.0 | 10.0 | 0.00 | 0.00 | 0.00 | 61 | 1024.9 |
| 20260906060112 | 63 | 304 | 3.0 | 7.0 | 0.00 | 0.00 | 0.00 | 63 | 1025.0 |
| 20260906055545 | 62 | 313 | 3.0 | 7.0 | 0.00 | 0.00 | 0.00 | 66 | 1025.0 |
| 20260906055045 | 62 | 0 | 0.0 | 0.0 | 0.00 | 0.00 | 0.00 | 66 | 1025.1 |
| 20260906054632 | 62 | 0 | 0.0 | 0.0 | 0.00 | 0.00 | 0.00 | 67 | 1025.0 |
| 20260906054046 | 62 | 0 | 0.0 | 0.0 | 0.00 | 0.00 | 0.00 | 67 | 1025.0 |
| 20260906053547 | 63 | 0 | 0.0 | 0.0 | 0.00 | 0.00 | 0.00 | 67 | 1024.9 |
| 20260906053101 | 63 | 0 | 0.0 | 0.0 | 0.00 | 0.00 | 0.00 | 66 | 1025.0 |
| 20260906052547 | 63 | 0 | 0.0 | 0.0 | 0.00 | 0.00 | 0.00 | 66 | 1025.0 |
| 20260906052047 | 64 | 0 | 0.0 | 0.0 | 0.00 | 0.00 | 0.00 | 65 | 1025.0 |
| 20260906051559 | 64 | 0 | 0.0 | 0.0 | 0.00 | 0.00 | 0.00 | 65 | 1024.9 |
| 20260906051046 | 64 | 0 | 0.0 | 0.0 | 0.00 | 0.00 | 0.00 | 65 | 1025.0 |
| 20260906050546 | 64 | 0 | 0.0 | 0.0 | 0.00 | 0.00 | 0.00 | 64 | 1025.1 |
| 20260906050105 | 65 | 0 | 0.0 | 0.0 | 0.00 | 0.00 | 0.00 | 64 | 1025.0 |
| 20260906045545 | 65 | 0 | 0.0 | 0.0 | 0.00 | 0.00 | 0.00 | 63 | 1025.1 |
| 20260906045045 | 65 | 0 | 0.0 | 0.0 | 0.00 | 0.00 | 0.00 | 63 | 1025.2 |
| 20260906044604 | 65 | 0 | 0.0 | 0.0 | 0.00 | 0.00 | 0.00 | 62 | 1025.2 |
| 20260906044047 | 65 | 0 | 0.0 | 0.0 | 0.00 | 0.00 | 0.00 | 62 | 1025.1 |
| 20260906043545 | 65 | 0 | 0.0 | 5.0 | 0.00 | 0.00 | 0.00 | 62 | 1025.2 |
| 20260906043100 | 66 | 0 | 0.0 | 5.0 | 0.00 | 0.00 | 0.00 | 62 | 1025.2 |
| 20260906042545 | 65 | 229 | 2.0 | 5.0 | 0.00 | 0.00 | 0.00 | 62 | 1025.4 |
| 20260906042045 | 65 | 214 | 0.0 | 3.0 | 0.00 | 0.00 | 0.00 | 61 | 1025.3 |
| 20260906041558 | 66 | 0 | 0.0 | 0.0 | 0.00 | 0.00 | 0.00 | 61 | 1025.3 |
| 20260906041046 | 66 | 0 | 0.0 | 0.0 | 0.00 | 0.00 | 0.00 | 60 | 1025.4 |
| 20260906040545 | 66 | 0 | 0.0 | 3.0 | 0.00 | 0.00 | 0.00 | 60 | 1025.3 |
| 20260906040121 | 66 | 0 | 0.0 | 3.0 | 0.00 | 0.00 | 0.00 | 60 | 1025.2 |
| 20260906035545 | 67 | 0 | 0.0 | 4.0 | 0.00 | 0.00 | 0.00 | 60 | 1025.2 |
| 20260906035045 | 67 | 0 | 1.0 | 4.0 | 0.00 | 0.00 | 0.00 | 60 | 1025.3 |
| 20260906034604 | 67 | 233 | 0.0 | 6.0 | 0.00 | 0.00 | 0.00 | 59 | 1025.4 |
| 20260906034045 | 67 | 205 | 1.0 | 6.0 | 0.00 | 0.00 | 0.00 | 60 | 1025.4 |
| 20260906033545 | 66 | 232 | 1.0 | 4.0 | 0.00 | 0.00 | 0.00 | 61 | 1025.5 |
| 20260906033126 | 66 | 259 | 1.0 | 4.0 | 0.00 | 0.00 | 0.00 | 60 | 1025.5 |
| 20260906032545 | 67 | 0 | 0.0 | 3.0 | 0.00 | 0.00 | 0.00 | 58 | 1025.5 |
| 20260906032045 | 67 | 0 | 1.0 | 3.0 | 0.00 | 0.00 | 0.00 | 58 | 1025.5 |
| 20260906031612 | 67 | 0 | 1.0 | 3.0 | 0.00 | 0.00 | 0.00 | 57 | 1025.4 |
| 20260906031047 | 67 | 275 | 0.0 | 2.0 | 0.00 | 0.00 | 0.00 | 55 | 1025.4 |
| 20260906030546 | 67 | 0 | 0.0 | 2.0 | 0.00 | 0.00 | 0.00 | 53 | 1025.4 |
| 20260906030104 | 66 | 0 | 0.0 | 4.0 | 0.00 | 0.00 | 0.00 | 52 | 1025.3 |
| 20260906025546 | 66 | 0 | 2.0 | 4.0 | 0.00 | 0.00 | 0.00 | 50 | 1025.2 |
| 20260906025045 | 66 | 262 | 2.0 | 4.0 | 0.00 | 0.00 | 0.00 | 47 | 1025.1 |
| 20260906024607 | 66 | 246 | 2.0 | 12.0 | 0.00 | 0.00 | 0.00 | 45 | 1025.0 |
| 20260906024045 | 66 | 0 | 2.0 | 12.0 | 0.00 | 0.00 | 0.00 | 46 | 1025.0 |
| 20260906023545 | 65 | 128 | 2.0 | 4.0 | 0.00 | 0.00 | 0.00 | 46 | 1024.7 |
| 20260906023102 | 65 | 0 | 0.0 | 0.0 | 0.00 | 0.00 | 0.00 | 44 | 1024.2 |
| 20260906022545 | 65 | 0 | 0.0 | 0.0 | 0.00 | 0.00 | 0.00 | 44 | 1024.1 |
| 20260906022049 | 65 | 0 | 0.0 | 0.0 | 0.00 | 0.00 | 0.00 | 44 | 1024.1 |
| 20260906021609 | 65 | 0 | 0.0 | 0.0 | 0.00 | 0.00 | 0.00 | 44 | 1024.0 |
| 20260906021045 | 66 | 0 | 0.0 | 0.0 | 0.00 | 0.00 | 0.00 | 43 | 1023.9 |
| 20260906020545 | 66 | 0 | 0.0 | 0.0 | 0.00 | 0.00 | 0.00 | 44 | 1023.8 |
| 20260906015548 | 67 | 0 | 0.0 | 0.0 | 0.00 | 0.00 | 0.00 | 43 | 1023.9 |
| 20260906015045 | 67 | 0 | 0.0 | 0.0 | 0.00 | 0.00 | 0.00 | 42 | 1023.8 |
| 20260906014603 | 68 | 0 | 0.0 | 0.0 | 0.00 | 0.00 | 0.00 | 42 | 1023.8 |
| 20260906014052 | 68 | 0 | 0.0 | 0.0 | 0.00 | 0.00 | 0.00 | 41 | 1023.7 |
| 20260906013552 | 69 | 0 | 0.0 | 0.0 | 0.00 | 0.00 | 0.00 | 40 | 1023.7 |
| 20260906013109 | 70 | 0 | 0.0 | 0.0 | 0.00 | 0.00 | 0.00 | 39 | 1023.7 |
| 20260906012549 | 71 | 0 | 0.0 | 0.0 | 0.00 | 0.00 | 0.00 | 39 | 1023.6 |
| 20260906012046 | 72 | 0 | 0.0 | 0.0 | 0.00 | 0.00 | 0.00 | 38 | 1023.6 |
| 20260906011606 | 74 | 0 | 0.0 | 0.0 | 0.00 | 0.00 | 0.00 | 37 | 1023.6 |
| 20260906011051 | 74 | 0 | 0.0 | 0.0 | 0.00 | 0.00 | 0.00 | 36 | 1023.6 |
| 20260906010545 | 75 | 0 | 0.0 | 0.0 | 0.00 | 0.00 | 0.00 | 36 | 1023.6 |
| 20260906010103 | 76 | 0 | 0.0 | 0.0 | 0.00 | 0.00 | 0.00 | 35 | 1023.7 |
| 20260906005545 | 76 | 0 | 0.0 | 1.0 | 0.00 | 0.00 | 0.00 | 35 | 1023.8 |
| 20260906005048 | 77 | 0 | 0.0 | 1.0 | 0.00 | 0.00 | 0.00 | 34 | 1023.8 |
| 20260906004607 | 77 | 329 | 0.0 | 2.0 | 0.00 | 0.00 | 0.00 | 32 | 1023.8 |
| 20260906004047 | 77 | 0 | 0.0 | 4.0 | 0.00 | 0.00 | 0.00 | 31 | 1023.9 |
| 20260906003545 | 77 | 270 | 1.0 | 9.0 | 0.00 | 0.00 | 0.00 | 32 | 1023.8 |
| 20260906003104 | 76 | 277 | 5.0 | 12.0 | 0.00 | 0.00 | 0.00 | 31 | 1023.9 |
| 20260906002548 | 76 | 284 | 7.0 | 14.0 | 0.00 | 0.00 | 0.00 | 31 | 1023.9 |
| 20260906002049 | 76 | 252 | 8.0 | 17.0 | 0.00 | 0.00 | 0.00 | 32 | 1024.0 |
| 20260906001602 | 76 | 299 | 10.0 | 17.0 | 0.00 | 0.00 | 0.00 | 31 | 1024.2 |
| 20260906001045 | 76 | 306 | 10.0 | 15.0 | 0.00 | 0.00 | 0.00 | 31 | 1024.0 |
| 20260906000551 | 76 | 298 | 7.0 | 11.0 | 0.00 | 0.00 | 0.00 | 31 | 1024.1 |
| 20260906000107 | 76 | 307 | 7.0 | 12.0 | 0.00 | 0.00 | 0.00 | 31 | 1024.0 |
| 20260905235547 | 76 | 271 | 6.0 | 12.0 | 0.00 | 0.00 | 0.00 | 32 | 1024.0 |
| 20260905235045 | 76 | 294 | 7.0 | 13.0 | 0.00 | 0.00 | 0.00 | 32 | 1023.9 |
| 20260905234602 | 76 | 294 | 9.0 | 13.0 | 0.00 | 0.00 | 0.00 | 32 | 1023.9 |
| 20260905234045 | 76 | 282 | 7.0 | 11.0 | 0.00 | 0.00 | 0.00 | 32 | 1023.9 |
| 20260905233549 | 76 | 269 | 6.0 | 10.0 | 0.00 | 0.00 | 0.00 | 32 | 1023.9 |
| 20260905233104 | 76 | 300 | 0.0 | 2.0 | 0.00 | 0.00 | 0.00 | 34 | 1023.8 |
| 20260905232546 | 77 | 0 | 0.0 | 2.0 | 0.00 | 0.00 | 0.00 | 35 | 1023.8 |
| 20260905232052 | 77 | 190 | 0.0 | 5.0 | 0.00 | 0.00 | 0.00 | 34 | 1023.8 |
| 20260905231601 | 77 | 0 | 0.0 | 6.0 | 0.00 | 0.00 | 0.00 | 31 | 1023.7 |
| 20260905231045 | 77 | 0 | 2.0 | 7.0 | 0.00 | 0.00 | 0.00 | 33 | 1023.8 |
| 20260905230550 | 77 | 240 | 3.0 | 7.0 | 0.00 | 0.00 | 0.00 | 32 | 1023.8 |
| 20260905225547 | 77 | 273 | 0.0 | 1.0 | 0.00 | 0.00 | 0.00 | 32 | 1023.8 |
| 20260905225048 | 77 | 0 | 0.0 | 1.0 | 0.00 | 0.00 | 0.00 | 33 | 1023.7 |
| 20260905224611 | 77 | 0 | 0.0 | 2.0 | 0.00 | 0.00 | 0.00 | 32 | 1023.7 |
| 20260905224044 | 77 | 0 | 0.0 | 4.0 | 0.00 | 0.00 | 0.00 | 30 | 1023.8 |
| 20260905223546 | 78 | 0 | 1.0 | 5.0 | 0.00 | 0.00 | 0.00 | 31 | 1023.9 |
| 20260905223100 | 77 | 144 | 0.0 | 5.0 | 0.00 | 0.00 | 0.00 | 30 | 1023.9 |
| 20260905222545 | 78 | 175 | 0.0 | 5.0 | 0.00 | 0.00 | 0.00 | 31 | 1024.0 |
| 20260905222045 | 78 | 134 | 1.0 | 6.0 | 0.00 | 0.00 | 0.00 | 30 | 1024.0 |
| 20260905221557 | 78 | 132 | 2.0 | 6.0 | 0.00 | 0.00 | 0.00 | 30 | 1024.1 |
| 20260905221045 | 78 | 0 | 1.0 | 6.0 | 0.00 | 0.00 | 0.00 | 31 | 1024.3 |
| 20260905220545 | 78 | 190 | 1.0 | 9.0 | 0.00 | 0.00 | 0.00 | 31 | 1024.3 |
| 20260905220106 | 79 | 180 | 3.0 | 10.0 | 0.00 | 0.00 | 0.00 | 29 | 1024.7 |
| 20260905215546 | 80 | 178 | 3.0 | 11.0 | 0.00 | 0.00 | 0.00 | 30 | 1024.6 |
| 20260905215044 | 80 | 166 | 6.0 | 12.0 | 0.00 | 0.00 | 0.00 | 30 | 1024.5 |
| 20260905214600 | 79 | 130 | 6.0 | 12.0 | 0.00 | 0.00 | 0.00 | 30 | 1024.5 |